Weather History for KCOM - January, 2013

Change the Weather History Date:

Monday, January 21, 2013

  Actual Average (KABI) Record (KABI)
Temperature  
Mean Temperature 46 °F 45 °F  
Max Temperature 55 °F 57 °F 83 °F (1974)
Min Temperature 36 °F 33 °F 4 °F (1888)
Degree Days  
Heating Degree Days 20 20  
Month to date heating degree days 430  
Since 1 July heating degree days 1475  
Cooling Degree Days 0 0  
Month to date cooling degree days 0  
Year to date cooling degree days 0  
Moisture  
Dew Point 29 °F    
Average Humidity 60    
Maximum Humidity 85    
Minimum Humidity 36    
Precipitation  
Precipitation 0.00 in 0.04 in 1.02 in (1904)
Month to date precipitation 0.64  
Year to date precipitation 0.64  
Sea Level Pressure  
Sea Level Pressure 30.22 in    
Wind  
Wind Speed 6 mph (North)    
Max Wind Speed 16 mph    
Max Gust Speed 20 mph    
Visibility 10 miles    
Events      
T = Trace of Precipitation, MM = Missing Value Source: NWS Daily Summary

Daily Weather History Graph

Daily Weather History Graph

Search for Another Location

Airport or City:

Trip Planner

Search our weather history database for the weather conditions in past years. The results will help you decide how hot, cold, wet, or windy it might be!

Date:

Astronomy

Jan. 21, 2013 Rise Set
Actual Time 7:36 AM CST 6:02 PM CST
Civil Twilight 7:10 AM CST 6:28 PM CST
Nautical Twilight 6:40 AM CST 6:57 PM CST
Astronomical Twilight 6:11 AM CST 7:26 PM CST
Moon 1:44 PM CST (1/21) 3:05 AM CST (1/21)
Length of Visible Light 11h 17m
Length of Day
10h 25m
Waxing Gibbous, 75% of the Moon is Illuminated
Jan 21
Waxing Gibbous
Jan 26
Full
Feb 3
Last Quarter
Feb 10
New
Feb 17
First Quarter

Hourly Weather History & Observations

Time (CST) Temp. Windchill Dew Point Humidity Pressure Visibility Wind Dir Wind Speed Gust Speed Precip Events Conditions
12:15 AM 38.8 °F 36.5 °F 29.5 °F 69% 30.14 in 10.0 mi WNW 3.5 mph - N/A   Clear
12:35 AM 39.4 °F 36.1 °F 29.1 °F 67% 30.14 in 10.0 mi West 4.6 mph - N/A   Clear
12:55 AM 36.5 °F 33.9 °F 28.6 °F 73% 30.15 in 10.0 mi WSW 3.5 mph - N/A   Clear
1:15 AM 36.7 °F 32.9 °F 28.9 °F 74% 30.15 in 10.0 mi West 4.6 mph - N/A   Clear
1:35 AM 37.2 °F 32.6 °F 29.5 °F 74% 30.15 in 10.0 mi West 5.8 mph - N/A   Clear
2:15 AM 37.4 °F 32.1 °F 29.8 °F 74% 30.15 in 10.0 mi West 6.9 mph - N/A   Clear
2:35 AM 37.4 °F 31.4 °F 29.8 °F 74% 30.15 in 10.0 mi West 8.1 mph - N/A   Clear
2:55 AM 37.4 °F 33.8 °F 29.5 °F 73% 30.15 in 10.0 mi West 4.6 mph - N/A   Clear
3:15 AM 37.0 °F 30.4 °F 29.3 °F 74% 30.15 in 10.0 mi WNW 9.2 mph - N/A   Clear
3:35 AM 37.6 °F 31.6 °F 29.5 °F 73% 30.15 in 10.0 mi WNW 8.1 mph - N/A   Clear
3:55 AM 36.9 °F 33.1 °F 29.1 °F 74% 30.16 in 10.0 mi NNE 4.6 mph - N/A   Clear
4:15 AM 36.0 °F - 28.8 °F 75% 30.16 in 10.0 mi Calm Calm - N/A   Clear
4:55 AM 36.7 °F - 29.7 °F 76% 30.16 in 10.0 mi Calm Calm - N/A   Clear
5:15 AM 38.3 °F - 29.5 °F 71% 30.17 in 10.0 mi Calm Calm - N/A   Clear
5:35 AM 39.6 °F 34.7 °F 29.8 °F 68% 30.18 in 10.0 mi North 6.9 mph - N/A   Clear
5:55 AM 40.1 °F - 31.1 °F 70% 30.19 in 10.0 mi Calm Calm - N/A   Clear
6:15 AM 39.7 °F 37.6 °F 31.5 °F 72% 30.20 in 10.0 mi North 3.5 mph - N/A   Clear
6:35 AM 40.1 °F 36.1 °F 32.4 °F 74% 30.21 in 10.0 mi North 5.8 mph - N/A   Clear
6:55 AM 39.4 °F 33.8 °F 32.9 °F 78% 30.22 in 10.0 mi North 8.1 mph - N/A   Clear
7:15 AM 38.8 °F 32.6 °F 33.1 °F 80% 30.23 in 10.0 mi North 9.2 mph - N/A   Clear
7:35 AM 37.8 °F 31.8 °F 32.9 °F 83% 30.24 in 10.0 mi North 8.1 mph - N/A   Clear
7:55 AM 37.0 °F 30.4 °F 32.9 °F 85% 30.25 in 10.0 mi North 9.2 mph - N/A   Clear
8:15 AM 37.8 °F 30.2 °F 32.9 °F 83% 30.25 in 10.0 mi North 11.5 mph - N/A   Clear
8:35 AM 38.8 °F 31.6 °F 32.5 °F 78% 30.26 in 10.0 mi North 11.5 mph - N/A   Clear
8:55 AM 39.6 °F 31.3 °F 32.2 °F 75% 30.27 in 10.0 mi North 15.0 mph - N/A   Clear
9:15 AM 40.5 °F 32.8 °F 31.8 °F 71% 30.27 in 10.0 mi North 13.8 mph - N/A   Clear
9:35 AM 41.5 °F 33.5 °F 31.8 °F 68% 30.28 in 10.0 mi North 16.1 mph 19.6 mph N/A   Clear
9:55 AM 42.4 °F 35.7 °F 31.1 °F 64% 30.28 in 10.0 mi North 12.7 mph - N/A   Clear
10:15 AM 43.7 °F 36.9 °F 30.9 °F 61% 30.28 in 10.0 mi NNE 13.8 mph - N/A   Clear
10:35 AM 44.8 °F 38.0 °F 30.6 °F 57% 30.29 in 10.0 mi North 15.0 mph - N/A   Clear
10:55 AM 45.7 °F 39.8 °F 30.7 °F 56% 30.30 in 10.0 mi NNE 12.7 mph - N/A   Clear
11:15 AM 46.8 °F - 30.6 °F 53% 30.30 in 10.0 mi NNE 12.7 mph 17.3 mph N/A   Clear
11:35 AM 47.3 °F - 30.2 °F 52% 30.29 in 10.0 mi NNE 13.8 mph - N/A   Clear
11:55 AM 48.0 °F - 29.7 °F 49% 30.29 in 10.0 mi North 10.4 mph - N/A   Clear
12:15 PM 48.9 °F - 29.7 °F 47% 30.28 in 10.0 mi North 13.8 mph - N/A   Clear
12:35 PM 49.6 °F - 29.3 °F 46% 30.27 in 10.0 mi NNE 11.5 mph - N/A   Clear
12:55 PM 50.4 °F - 29.1 °F 44% 30.27 in 10.0 mi North 10.4 mph - N/A   Clear
1:15 PM 51.1 °F - 28.9 °F 43% 30.26 in 10.0 mi North 11.5 mph 16.1 mph N/A   Clear
1:35 PM 51.8 °F - 28.9 °F 41% 30.25 in 10.0 mi NNE 10.4 mph - N/A   Clear
1:55 PM 52.7 °F - 28.9 °F 40% 30.25 in 10.0 mi North 10.4 mph - N/A   Clear
2:15 PM 53.2 °F - 28.4 °F 38% 30.24 in 10.0 mi NNE 5.8 mph - N/A   Clear
2:35 PM 53.6 °F - 28.2 °F 38% 30.24 in 10.0 mi North 8.1 mph - N/A   Clear
2:55 PM 54.1 °F - 28.2 °F 37% 30.24 in 10.0 mi NE 5.8 mph - N/A   Clear
3:15 PM 54.3 °F - 28.4 °F 37% 30.23 in 10.0 mi NNE 5.8 mph - N/A   Clear
3:35 PM 54.9 °F - 28.8 °F 37% 30.22 in 10.0 mi NNE 8.1 mph - N/A   Clear
3:55 PM 55.2 °F - 28.2 °F 36% 30.22 in 10.0 mi North 3.5 mph - N/A   Clear
4:15 PM 55.4 °F - 28.4 °F 36% 30.22 in 10.0 mi North 4.6 mph - N/A   Clear
4:35 PM 55.4 °F - 28.4 °F 36% 30.23 in 10.0 mi NNE 4.6 mph - N/A   Clear
4:55 PM 55.0 °F - 28.4 °F 36% 30.22 in 10.0 mi North 5.8 mph - N/A   Clear
5:15 PM 54.3 °F - 28.2 °F 37% 30.22 in 10.0 mi North 5.8 mph - N/A   Clear
5:35 PM 53.1 °F - 28.8 °F 39% 30.22 in 10.0 mi NNE 5.8 mph - N/A   Clear
5:55 PM 50.4 °F - 29.5 °F 45% 30.22 in 10.0 mi NNE 8.1 mph - N/A   Clear
6:15 PM 47.5 °F - 29.1 °F 49% 30.22 in 10.0 mi NNE 6.9 mph - N/A   Clear
6:35 PM 45.5 °F 41.3 °F 28.9 °F 52% 30.23 in 10.0 mi NNE 8.1 mph - N/A   Clear
6:55 PM 44.2 °F 40.3 °F 28.8 °F 55% 30.23 in 10.0 mi NNE 6.9 mph - N/A   Clear
7:15 PM 43.2 °F 39.7 °F 28.4 °F 56% 30.23 in 10.0 mi NNE 5.8 mph - N/A   Clear
7:55 PM 41.9 °F 39.0 °F 28.4 °F 59% 30.22 in 10.0 mi NE 4.6 mph - N/A   Clear
8:15 PM 40.6 °F 36.7 °F 28.2 °F 61% 30.23 in 10.0 mi NNE 5.8 mph - N/A   Clear
8:35 PM 39.7 °F 37.6 °F 27.7 °F 62% 30.23 in 10.0 mi NNE 3.5 mph - N/A   Clear
8:55 PM 39.6 °F 37.4 °F 27.1 °F 61% 30.22 in 10.0 mi North 3.5 mph - N/A   Clear
9:15 PM 40.1 °F 35.3 °F 27.1 °F 60% 30.23 in 10.0 mi North 6.9 mph - N/A   Clear
9:35 PM 40.1 °F - 27.0 °F 59% 30.23 in 10.0 mi Calm Calm - N/A   Clear
9:55 PM 39.6 °F - 26.6 °F 60% 30.23 in 10.0 mi Calm Calm - N/A   Clear
10:15 PM 39.0 °F 35.7 °F 26.6 °F 61% 30.23 in 10.0 mi WNW 4.6 mph - N/A   Clear
10:35 PM 38.5 °F 36.1 °F 26.8 °F 63% 30.24 in 10.0 mi NNW 3.5 mph - N/A   Clear
10:55 PM 38.8 °F - 26.6 °F 61% 30.24 in 10.0 mi Calm Calm - N/A   Clear
11:15 PM 37.9 °F 35.5 °F 26.6 °F 64% 30.25 in 10.0 mi NNW 3.5 mph - N/A   Clear
11:35 PM 37.2 °F 34.7 °F 26.8 °F 66% 30.25 in 10.0 mi NNW 3.5 mph - N/A   Clear
11:55 PM 37.9 °F 35.5 °F 26.6 °F 64% 30.25 in 10.0 mi NNW 3.5 mph - N/A   Clear